Overview Statistics Trail Chart Weather Telemetry Raw packets
 

This is the latest recevied weather packets stored in our database for station/object KV4OP. If no packets are shown the sender has not sent any weather packets the latest 10 day(s).

<< 14 15 16 17 18 19 20 >>
Time Temp. Humidity Pressure Rain* Wind** Luminosity Snow
1788554108 33.89° C 73% 1013.8 hPa 0 mm - - -
1788553808 33.89° C 70% 1013.6 hPa 0 mm - - -
1788553509 34.44° C 70% 1013.5 hPa 0 mm - - -
1788553217 34.44° C 73% 1013.5 hPa 0 mm - - -
1788552908 34.44° C 70% 1013.7 hPa 0 mm - - -
1788552608 34.44° C 70% 1013.7 hPa 0 mm - - -
1788552309 33.89° C 72% 1013.7 hPa 0 mm - - -
1788552017 33.89° C 74% 1013.8 hPa 0 mm - - -
1788551709 34.44° C 71% 1013.9 hPa 0 mm - - -
1788551408 34.44° C 70% 1013.8 hPa 0 mm - - -
1788551109 34.44° C 74% 1013.9 hPa 0 mm - - -
1788550818 34.44° C 70% 1014 hPa 0 mm - - -
1788550509 34.44° C 70% 1014.2 hPa 0 mm - - -
1788550209 34.44° C 73% 1014.3 hPa 0 mm - - -
1788549909 34.44° C 71% 1014.3 hPa 0 mm - - -
1788549617 34.44° C 70% 1014.4 hPa 0 mm - - -
1788549309 33.89° C 71% 1014.5 hPa 0 mm - - -
1788549008 33.89° C 71% 1014.6 hPa 0 mm - - -
1788548709 33.89° C 73% 1014.7 hPa 0 mm - - -
1788548417 33.33° C 75% 1014.8 hPa 0 mm - - -
1788548109 33.33° C 73% 1014.9 hPa 0 mm - - -
1788547809 33.89° C 71% 1015 hPa 0 mm - - -
1788547509 33.89° C 72% 1015.1 hPa 0 mm - - -
1788547234 33.89° C 73% 1015.1 hPa 0 mm - - -
1788546909 33.89° C 72% 1015.3 hPa 0 mm - - -

* Rain latest hour (hover to see other rain measurements)
** Current wind speed in m/s (hover to see current wind gust speed)